When you browse on this site, cookies collect data to enhance your experience and personalize the content and advertising you see.
Visit our Privacy Policy to learn more. By continuing to use the site, you agree to this use of cookies and data.
  • In United Kingdom
  • List of Countries
  • For 7 days
  • Water Temperature
  • Weather Map
  • Weather Widgets
  • user-avatar
    Login

    Hourly Weather Guildford

    Today, 29 February, Saturday

    Time Temperature Precipitation Wind Pressure Humidity
    00:00 +8°C° 0 mm 9 mps 736 mmHg 90%
    01:00 +8°C° 0 mm 10 mps 735 mmHg 87%
    02:00 +8°C° 0 mm 10 mps 734 mmHg 84%
    03:00 +7°C° 0 mm 11 mps 732 mmHg 81%
    04:00 +7°C° 0.9 mm 11 mps 731 mmHg 83%
    05:00 +7°C° 0.9 mm 12 mps 730 mmHg 85%
    06:00 +5°C° 0.9 mm 12 mps 729 mmHg 87%
    07:00 +4°C° 1 mm 11 mps 729 mmHg 85%
    08:00 +3°C° 1 mm 9 mps 729 mmHg 84%
    09:00 +4°C° 1 mm 8 mps 729 mmHg 82%
    10:00 +3°C° 0.1 mm 9 mps 730 mmHg 75%
    11:00 +3°C° 0.1 mm 9 mps 731 mmHg 68%
    12:00 +3°C° 0.1 mm 10 mps 732 mmHg 60%
    13:00 +3°C° 0.2 mm 10 mps 732 mmHg 61%
    14:00 +3°C° 0.2 mm 10 mps 732 mmHg 62%
    15:00 +3°C° 0.2 mm 11 mps 732 mmHg 63%
    16:00 +2°C° 0.1 mm 9 mps 732 mmHg 65%
    17:00 +1°C° 0.1 mm 8 mps 732 mmHg 67%
    18:00 0°C° 0.1 mm 7 mps 733 mmHg 69%
    19:00 0°C° 0 mm 7 mps 733 mmHg 69%
    20:00 0°C° 0 mm 7 mps 733 mmHg 69%
    21:00 0°C° 0 mm 7 mps 732 mmHg 69%
    22:00 0°C° 0 mm 7 mps 733 mmHg 71%
    23:00 0°C° 0 mm 8 mps 733 mmHg 74%

    Tomorrow, 1 March, Sunday

    Time Temperature Precipitation Wind Pressure Humidity
    00:00 0°C° 0 mm 8 mps 733 mmHg 76%
    01:00 0°C° 0 mm 8 mps 733 mmHg 74%
    02:00 0°C° 0 mm 7 mps 733 mmHg 73%
    03:00 0°C° 0 mm 7 mps 733 mmHg 71%
    04:00 0°C° 0 mm 7 mps 734 mmHg 72%
    05:00 +1°C° 0 mm 6 mps 734 mmHg 74%
    06:00 +1°C° 0 mm 6 mps 734 mmHg 75%
    07:00 +1°C° 0 mm 6 mps 734 mmHg 73%
    08:00 +2°C° 0 mm 7 mps 734 mmHg 70%
    09:00 +3°C° 0 mm 7 mps 734 mmHg 68%
    10:00 +4°C° 0 mm 6 mps 734 mmHg 66%
    11:00 +5°C° 0 mm 6 mps 734 mmHg 64%
    12:00 +6°C° 0 mm 5 mps 734 mmHg 63%
    13:00 +6°C° 0.1 mm 5 mps 733 mmHg 63%
    14:00 +6°C° 0.1 mm 5 mps 732 mmHg 63%
    15:00 +5°C° 0.1 mm 6 mps 732 mmHg 64%
    16:00 +5°C° 0 mm 5 mps 732 mmHg 68%
    17:00 +4°C° 0 mm 4 mps 732 mmHg 72%
    18:00 +3°C° 0 mm 4 mps 732 mmHg 76%
    19:00 +2°C° 0 mm 3 mps 732 mmHg 78%
    20:00 +2°C° 0 mm 3 mps 732 mmHg 80%
    21:00 +2°C° 0 mm 3 mps 732 mmHg 83%
    22:00 +3°C° 0.4 mm 2 mps 731 mmHg 85%
    23:00 +3°C° 0.4 mm 2 mps 730 mmHg 88%

    Day after tomorrow, 2 March, Monday

    Time Temperature Precipitation Wind Pressure Humidity
    00:00 +3°C° 0.4 mm 2 mps 730 mmHg 91%
    01:00 +3°C° 2.2 mm 2 mps 729 mmHg 92%
    02:00 +2°C° 2.2 mm 3 mps 729 mmHg 94%
    03:00 +1°C° 2.2 mm 4 mps 729 mmHg 95%
    04:00 0°C° 0.6 mm 4 mps 729 mmHg 92%
    05:00 0°C° 0.6 mm 4 mps 730 mmHg 88%
    06:00 0°C° 0.6 mm 4 mps 730 mmHg 85%
    07:00 +1°C° 0 mm 4 mps 731 mmHg 82%
    08:00 +1°C° 0 mm 5 mps 732 mmHg 79%
    09:00 +2°C° 0 mm 5 mps 733 mmHg 76%
    10:00 +2°C° 0 mm 6 mps 733 mmHg 72%
    11:00 +3°C° 0 mm 6 mps 734 mmHg 68%
    12:00 +4°C° 0 mm 7 mps 735 mmHg 63%
    13:00 +4°C° 0.1 mm 7 mps 735 mmHg 63%
    14:00 +4°C° 0.1 mm 7 mps 735 mmHg 63%
    15:00 +4°C° 0.1 mm 7 mps 735 mmHg 62%
    16:00 +3°C° 0 mm 6 mps 735 mmHg 66%
    17:00 +2°C° 0 mm 5 mps 736 mmHg 70%
    18:00 +1°C° 0 mm 4 mps 736 mmHg 75%
    19:00 0°C° 0 mm 4 mps 737 mmHg 77%
    20:00 0°C° 0 mm 4 mps 737 mmHg 78%
    21:00 -1°C° 0 mm 4 mps 738 mmHg 80%
    22:00 -1°C° 0 mm 4 mps 738 mmHg 82%
    23:00 -1°C° 0 mm 4 mps 738 mmHg 83%

    3 March, Tuesday

    Time Temperature Precipitation Wind Pressure Humidity
    00:00 -1°C° 0 mm 4 mps 739 mmHg 84%
    01:00 -1°C° 0 mm 4 mps 739 mmHg 88%
    02:00 0°C° 0 mm 4 mps 739 mmHg 91%
    03:00 0°C° 0 mm 4 mps 740 mmHg 95%
    04:00 0°C° 0.1 mm 5 mps 740 mmHg 91%
    05:00 0°C° 0.1 mm 5 mps 741 mmHg 88%
    06:00 0°C° 0.1 mm 5 mps 742 mmHg 84%
    07:00 +1°C° 0 mm 6 mps 742 mmHg 81%
    08:00 +1°C° 0 mm 6 mps 743 mmHg 78%
    09:00 +2°C° 0 mm 7 mps 744 mmHg 75%
    10:00 +3°C° 0 mm 7 mps 744 mmHg 70%
    11:00 +4°C° 0 mm 7 mps 745 mmHg 65%
    12:00 +5°C° 0 mm 7 mps 745 mmHg 60%
    13:00 +5°C° 0 mm 7 mps 745 mmHg 59%
    14:00 +5°C° 0 mm 6 mps 745 mmHg 57%
    15:00 +5°C° 0 mm 6 mps 745 mmHg 56%
    16:00 +5°C° 0 mm 5 mps 745 mmHg 62%
    17:00 +4°C° 0 mm 4 mps 745 mmHg 68%
    18:00 +2°C° 0 mm 3 mps 746 mmHg 74%
    19:00 +2°C° 0 mm 3 mps 746 mmHg 77%
    20:00 +1°C° 0 mm 3 mps 747 mmHg 80%
    21:00 +1°C° 0 mm 3 mps 747 mmHg 84%
    22:00 0°C° 0 mm 3 mps 747 mmHg 85%
    23:00 0°C° 0 mm 3 mps 747 mmHg 86%

    4 March, Wednesday

    Time Temperature Precipitation Wind Pressure Humidity
    00:00 0°C° 0 mm 3 mps 747 mmHg 87%
    01:00 -1°C° 0 mm 2 mps 747 mmHg 87%
    02:00 -1°C° 0 mm 2 mps 747 mmHg 87%
    03:00 -1°C° 0 mm 2 mps 747 mmHg 87%
    04:00 -1°C° 0 mm 2 mps 747 mmHg 87%
    05:00 -1°C° 0 mm 2 mps 747 mmHg 87%
    06:00 -1°C° 0 mm 2 mps 747 mmHg 87%
    07:00 +3°C° 0 mm 1 mps 748 mmHg 82%
    08:00 +4°C° 0 mm 1 mps 748 mmHg 78%
    09:00 +5°C° 0 mm 1 mps 748 mmHg 73%
    10:00 +5°C° 0 mm 2 mps 748 mmHg 69%
    11:00 +6°C° 0 mm 2 mps 747 mmHg 66%
    12:00 +7°C° 0 mm 3 mps 747 mmHg 62%
    13:00 +7°C° 0 mm 3 mps 747 mmHg 68%
    14:00 +7°C° 0 mm 2 mps 746 mmHg 74%
    15:00 +6°C° 0 mm 2 mps 746 mmHg 80%
    16:00 +6°C° 0 mm 2 mps 745 mmHg 83%
    17:00 +5°C° 0 mm 2 mps 745 mmHg 87%
    18:00 +4°C° 0 mm 2 mps 745 mmHg 91%
    19:00 +4°C° 0 mm 2 mps 744 mmHg 92%
    20:00 +4°C° 0 mm 2 mps 744 mmHg 92%
    21:00 +3°C° 0 mm 2 mps 744 mmHg 93%
    22:00 +3°C° 0.3 mm 3 mps 743 mmHg 94%
    23:00 +3°C° 0.3 mm 3 mps 742 mmHg 94%

    5 March, Thursday

    Time Temperature Precipitation Wind Pressure Humidity
    00:00 +4°C° 0.3 mm 3 mps 742 mmHg 95%
    01:00 +4°C° 0.3 mm 4 mps 741 mmHg 94%
    02:00 +4°C° 0.3 mm 4 mps 740 mmHg 94%
    03:00 +3°C° 0.3 mm 5 mps 739 mmHg 93%
    04:00 +3°C° 0.6 mm 5 mps 738 mmHg 93%
    05:00 +3°C° 0.6 mm 6 mps 737 mmHg 93%
    06:00 +3°C° 0.6 mm 6 mps 737 mmHg 93%
    07:00 +3°C° 1.1 mm 6 mps 736 mmHg 93%
    08:00 +3°C° 1.1 mm 7 mps 736 mmHg 92%
    09:00 +3°C° 1.1 mm 7 mps 736 mmHg 92%
    10:00 +3°C° 0.9 mm 7 mps 736 mmHg 91%
    11:00 +2°C° 0.9 mm 8 mps 736 mmHg 91%
    12:00 +2°C° 0.9 mm 8 mps 736 mmHg 90%
    13:00 +3°C° 0.1 mm 7 mps 736 mmHg 86%
    14:00 +3°C° 0.1 mm 7 mps 737 mmHg 82%
    15:00 +4°C° 0.1 mm 7 mps 737 mmHg 78%
    16:00 +3°C° 0 mm 6 mps 738 mmHg 78%
    17:00 +2°C° 0 mm 5 mps 739 mmHg 78%
    18:00 +2°C° 0 mm 5 mps 740 mmHg 78%
    19:00 +1°C° 0 mm 4 mps 741 mmHg 82%
    20:00 0°C° 0 mm 4 mps 741 mmHg 85%
    21:00 +1°C° 0 mm 3 mps 742 mmHg 88%
    22:00 0°C° 0 mm 3 mps 742 mmHg 90%
    23:00 0°C° 0 mm 3 mps 743 mmHg 91%
    Show more